Location: Laguna de la Cañada del Gallo
(40.3974°N, 5.2096°W)
Time: 10:36:42
(UTC+00:00)

ISS - Visible Passes

Search period start: 23 June 2024 00:00
Search period end: 03 July 2024 00:00
Orbit: 410 x 425 km, 51.6° (Epoch: 23 June)

Date Brightness Start Highest point End Pass type
(mag) Time Alt. Az. Time Alt. Az. Time Alt. Az.
23 Jun -2.7 03:21:16 22° S 03:22:46 33° SE 03:25:49 10° ENE visible
24 Jun -1.8 02:35:01 19° SE 02:35:01 19° SE 02:37:18 10° E visible
24 Jun -3.1 04:08:09 10° WSW 04:11:22 47° NNW 04:14:38 10° NE visible
25 Jun -3.8 03:21:36 27° WSW 03:23:14 80° NW 03:26:35 10° NE visible
26 Jun -3.6 02:35:11 57° SE 02:35:11 57° SE 02:38:25 10° ENE visible
26 Jun -1.8 04:09:22 10° WNW 04:12:06 23° NNW 04:14:51 10° NNE visible
27 Jun -1.6 01:48:41 20° E 01:48:41 20° E 01:50:03 10° ENE visible
27 Jun -2.3 03:21:34 15° W 03:23:47 32° NNW 03:26:50 10° NE visible
28 Jun -3.2 02:35:00 44° WNW 02:35:29 49° NNW 02:38:45 10° NE visible
28 Jun -1.1 04:10:51 10° NW 04:12:52 15° NNW 04:14:54 10° NNE visible
29 Jun -2.5 01:48:20 39° NE 01:48:20 39° NE 01:50:34 10° NE visible
29 Jun -1.3 03:22:00 10° WNW 03:24:24 18° NNW 03:26:49 10° NNE visible
30 Jun -1.0 01:01:37 15° ENE 01:01:37 15° ENE 01:02:15 10° ENE visible
30 Jun -1.7 02:34:30 18° WNW 02:35:56 24° NNW 02:38:43 10° NNE visible
30 Jun -0.8 04:12:10 10° NNW 04:13:37 12° N 04:15:04 10° NNE visible
01 Jul -2.2 01:47:41 33° NNW 01:47:41 33° NNW 01:50:34 10° NE visible
01 Jul -0.9 03:23:20 10° NW 03:25:01 13° N 03:26:43 10° NNE visible
02 Jul -1.5 01:00:48 24° NE 01:00:48 24° NE 01:02:21 10° NE visible
02 Jul -0.9 02:34:22 10° NW 02:36:25 15° NNW 02:38:29 10° NNE visible
02 Jul -0.7 04:12:39 10° NNW 04:14:15 13° N 04:15:51 10° NE visible
